Weather History for Doha International Airport, Qatar

Change the Weather History Date:

Sunday, May 19, 2013

  Actual Average Record
Temperature  
Mean Temperature 89 °F -  
Max Temperature 98 °F 104 °F - ()
Min Temperature 80 °F 80 °F - ()
Cooling Degree Days 24    
Growing Degree Days 39 (Base 50)    
Moisture  
Dew Point 50 °F    
Average Humidity 27    
Maximum Humidity 48    
Minimum Humidity 9    
Precipitation  
Precipitation 0.00 in 0.00 in - ()
Sea Level Pressure  
Sea Level Pressure 29.75 in    
Wind  
Wind Speed 11 mph ()    
Max Wind Speed 21 mph    
Max Gust Speed -    
Visibility 8.5 miles    
Events      
T = Trace of Precipitation, MM = Missing Value Source: Averaged Metar Reports

Daily Weather History Graph

Daily Weather History Graph

Search for Another Location

Airport:

Trip Planner

Search our weather history database for the weather conditions in past years. The results will help you decide how hot, cold, wet, or windy it might be!

Date:

Astronomy

May. 19, 2013 Rise Set
Actual Time 4:47 AM AST 6:13 PM AST
Civil Twilight 4:22 AM AST 6:38 PM AST
Nautical Twilight 3:52 AM AST 7:08 PM AST
Astronomical Twilight 3:21 AM AST 7:39 PM AST
Moon 12:29 PM AST (5/19) 12:19 AM AST (5/19)
Length of Visible Light 14h 16m
Length of Day
13h 26m
Waxing Gibbous, 62% of the Moon is Illuminated
May 19
Waxing Gibbous
May 25
Full
May 31
Last Quarter
Jun 8
New
Jun 16
First Quarter

Hourly Weather History & Observations

Time (AST) Temp. Heat Index Dew Point Humidity Pressure Visibility Wind Dir Wind Speed Gust Speed Precip Events Conditions
12:00 AM 84.2 °F 83.0 °F 55.4 °F 37% 29.74 in - NW 12.7 mph - N/A   Clear
12:30 AM 84.2 °F 83.5 °F 57.2 °F 40% 29.74 in - WNW 11.5 mph - N/A   Clear
1:00 AM 82.4 °F 82.5 °F 59.0 °F 45% 29.74 in - WNW 9.2 mph - N/A   Clear
1:30 AM 82.4 °F 82.0 °F 57.2 °F 42% 29.74 in - WNW 10.4 mph - N/A   Clear
2:00 AM 82.4 °F 82.5 °F 59.0 °F 45% 29.74 in - WNW 8.1 mph - N/A   Clear
2:30 AM 82.4 °F 82.0 °F 57.2 °F 42% 29.74 in - WNW 8.1 mph - N/A   Clear
3:00 AM 82 °F - 57 °F 31% 29.75 in 7 mi West 8.1 mph - -  
3:00 AM 82.4 °F 82.0 °F 57.2 °F 42% 29.74 in - West 8.1 mph - N/A   Clear
4:00 AM 80.6 °F 81.1 °F 59.0 °F 48% 29.74 in - West 8.1 mph - N/A   Clear
4:30 AM 80.6 °F 81.1 °F 59.0 °F 48% 29.74 in - West 6.9 mph - N/A   Clear
5:00 AM 80.6 °F 80.8 °F 57.2 °F 45% 29.77 in - West 6.9 mph - N/A   Clear
5:30 AM 82.4 °F 82.0 °F 57.2 °F 42% 29.77 in - West 6.9 mph - N/A   Clear
6:00 AM 82.4 °F 82.0 °F 57.2 °F 42% 29.77 in - WNW 8.1 mph - N/A   Clear
8:30 AM 91.4 °F 89.4 °F 55.4 °F 29% 29.80 in - NW 11.5 mph - N/A   Clear
9:00 AM 92 °F - 52 °F 16% 29.81 in 9 mi NW 11.5 mph - -  
9:00 AM 93.2 °F - 51.8 °F 24% 29.80 in - NW 11.5 mph - N/A   Clear
9:30 AM 95.0 °F - 51.8 °F 23% 29.80 in - NW 11.5 mph - N/A   Clear
10:00 AM 95.0 °F - 46.4 °F 19% 29.80 in - NNW 17.3 mph - N/A   Clear
10:30 AM 96.8 °F - 44.6 °F 17% 29.80 in - NW 17.3 mph - N/A   Clear
11:00 AM 96.8 °F - 44.6 °F 17% 29.77 in - NNW 17.3 mph - N/A   Clear
11:30 AM 96.8 °F - 44.6 °F 17% 29.77 in - NW 15.0 mph - N/A   Clear
12:00 PM 96.8 °F - 42.8 °F 16% 29.77 in - NW 17.3 mph - N/A   Clear
12:30 PM 96.8 °F - 42.8 °F 16% 29.74 in - NW 17.3 mph - N/A   Clear
1:00 PM 96.8 °F - 42.8 °F 16% 29.74 in - NW 18.4 mph - N/A   Clear
1:30 PM 96.8 °F - 41.0 °F 15% 29.74 in - NNW 20.7 mph - N/A   Clear
2:00 PM 96.8 °F - 41.0 °F 15% 29.74 in - NW 17.3 mph - N/A   Clear
3:00 PM 97 °F - 43 °F 9% 29.75 in 9 mi NNW 16.1 mph - -  
3:00 PM 96.8 °F - 42.8 °F 16% 29.74 in - NNW 16.1 mph - N/A   Clear
3:30 PM 96.8 °F - 42.8 °F 16% 29.74 in - NW 16.1 mph - N/A   Clear
4:00 PM 96.8 °F - 42.8 °F 16% 29.71 in - NW 16.1 mph - N/A   Clear
4:30 PM 96.8 °F - 44.6 °F 17% 29.71 in - NNW 16.1 mph - N/A   Clear
5:00 PM 95.0 °F - 44.6 °F 18% 29.71 in - NNW 16.1 mph - N/A   Clear
5:30 PM 93.2 °F - 46.4 °F 20% 29.71 in - NNW 16.1 mph - N/A   Clear
6:00 PM 91.4 °F - 48.2 °F 23% 29.74 in - NNW 15.0 mph - N/A   Clear
6:30 PM 91.4 °F - 50.0 °F 24% 29.74 in - NNW 12.7 mph - N/A   Clear
7:00 PM 89.6 °F - 48.2 °F 24% 29.74 in - NNW 12.7 mph - N/A   Clear
7:30 PM 89.6 °F - 50.0 °F 26% 29.74 in - North 10.4 mph - N/A   Clear
8:00 PM 87.8 °F - 50.0 °F 27% 29.74 in - North 11.5 mph - N/A   Clear
9:00 PM 88 °F - 48 °F 16% 29.75 in 9 mi NNW 10.4 mph - -  
9:00 PM 87.8 °F - 48.2 °F 25% 29.74 in - NNW 10.4 mph - N/A   Clear
9:30 PM 87.8 °F - 48.2 °F 25% 29.74 in - NNW 9.2 mph - N/A   Clear
10:00 PM 87.8 °F - 50.0 °F 27% 29.74 in - NW 9.2 mph - N/A   Clear
10:30 PM 87.8 °F - 51.8 °F 29% 29.74 in - NW 6.9 mph - N/A   Clear
11:00 PM 87.8 °F - 51.8 °F 29% 29.71 in - NW 6.9 mph - N/A   Clear
11:30 PM 86.0 °F 84.2 °F 53.6 °F 33% 29.71 in - West 4.6 mph - N/A   Clear